Location: Most
(50.5133°N, 13.6207°E)
Time: 21:29:10
(UTC+02:00)

ISS - Pass Details

Date: 18 May 2025
Orbit: 415 x 416 km, 51.6° (Epoch: 16 June)

Event Time Altitude Azimuth Distance (km) Brightness Sun altitude
Rises 23:02:14 0° 285° (WNW) 2,362 0.8 -14.9°
Reaches altitude 10° 23:04:21 10° 283° (WNW) 1,496 -0.4 -15.1°
Maximum altitude 23:07:41 68° 200° (SSW) 451 -3.8 -15.3°
Enters shadow 23:08:56 34° 127° (SE) 700 -3.1 -15.4°
